Other Public Products
Issued by NWS Grand Forks, ND

Home | Current Version | Previous Version | Text Only | Print | Product List | Glossary Off
Versions: 1 2 3 4 5 6 7 8 9 10 11 12 13 14 15 16 17 18 19 20 21 22 23 24 25 26 27 28 29 30 31 32 33 34 35 36 37 38 39 40 41 42 43 44 45 46 47 48 49 50

000
FPUS83 KFGF 310031
OPUFGF
PRAIRIE TO PINES WEATHER ROUNDUP
NATIONAL WEATHER SERVICE EASTERN NORTH DAKOTA/GRAND FORKS ND
700 PM CDT MON MAY 30 2016

 **SATELLITE DATA USED TO AUGMENT SKY COVER AT AUTOMATED STATIONS**
 *****  WEATHER ACROSS EASTERN NORTH DAKOTA  *****

CITY           SKY/WX    TMP DP  RH WIND       PRES   REMARKS
GRAND FORKS    CLOUDY    64  55  72 NE16      29.82F
6HR MIN TEMP:  62; 6HR MAX TEMP:  81; 6HR PCP:  0.12;

GRAND FORKS AF LGT RAIN  63  54  72 E12       29.83F
GRAND CITY NWS   N/A     64 N/A N/A NE12        N/A
BUXTON           N/A     65  60  85 NE14        N/A
DEVILS LAKE    HVY RAIN  61  56  83 S6        29.89R
6HR MIN TEMP:  59; 6HR MAX TEMP:  77; 6HR PCP:  0.25;

FARGO          FAIR      82  48  30 SE12G22   29.76S
6HR MIN TEMP:  82; 6HR MAX TEMP:  87;

WAHPETON ARPT  MOCLDY    75  54  46 NE9       29.77F
$$

 *****  WEATHER ACROSS CENTRAL AND WESTERN NORTH DAKOTA  *****

CITY           SKY/WX    TMP DP  RH WIND       PRES   REMARKS
JAMESTOWN      LGT RAIN  62  57  83 NE24G30   29.77F
6HR MIN TEMP:  62; 6HR MAX TEMP:  83; 6HR PCP:  0.41;

BISMARCK       TSTM      59  56  89 W13       29.85R FOG
6HR MIN TEMP:  62; 6HR MAX TEMP:  80; 6HR PCP:  0.01;

MINOT          LGT RAIN  61  55  81 W6        29.85S
6HR MIN TEMP:  61; 6HR MAX TEMP:  76; 6HR PCP:  0.09;

MINOT AFB      LGT RAIN  59  54  84 W6        29.84F
6HR MIN TEMP:  59; 6HR MAX TEMP:  73; 6HR PCP:  0.03;

GARRISON         N/A     56  54  93 NE8       29.85S
6HR MIN TEMP:  56; 6HR MAX TEMP:  65; 6HR PCP:  0.40;

WILLISTON      LGT RAIN  56  53  90 NE8       29.91R
6HR MIN TEMP:  56; 6HR MAX TEMP:  60; 6HR PCP:  0.08;

DICKINSON      CLOUDY    59  53  80 N6        29.87R
6HR MIN TEMP:  53; 6HR MAX TEMP:  59; 6HR PCP:  0.19;

HETTINGER      PTSUNNY   64  56  75 NW18      29.89R
6HR MIN TEMP:  53; 6HR MAX TEMP:  64; 6HR PCP:  0.39;

$$

 *****  OTHER OBSERVATIONS NORTHEAST NORTH DAKOTA  *****

CITY           SKY/WX    TMP DP  RH WIND       PRES   REMARKS
WALHALLA       FAIR      66  63  88 S5        29.86R
LANGDON        MOCLDY    66  52  59 E7        29.86F
CAVALIER       FAIR      66  55  68 S5        29.85R
GRAFTON        DRIZZLE   63  59  88 VRB5      29.87S
CANDO          MOCLDY    63  57  82 S10       29.88R
FORT TOTTEN      N/A     58  57  96 SE6       29.95S
ROLLA          MOCLDY    68  46  45 NE7       29.86S
RUGBY          MOCLDY    59  59 100 W7        29.85S
 ***** THE ABOVE OBSERVATIONS ARE NON NWS ARE NOT QUALITY
        CONTROLLED AND MAY MIS-REPORT RAIN FOR SNOW...
$$

 *****  OTHER OBSERVATIONS SOUTHEAST NORTH DAKOTA *****

CITY           SKY/WX    TMP DP  RH WIND       PRES   REMARKS
COOPERSTOWN    NOT AVBL
VALLEY CITY    LGT RAIN  63  61  94 N18G28    29.83R
OAKES            N/A    N/A N/A N/A MISG        N/A
GWINNER        FAIR      81  57  44 SE8       29.76R
SHEYENNE NWR     N/A     80  56  42 S6        29.95S
BUFFALO          N/A     68  56  66 NE14        N/A
WYNDMERE         N/A     84  52  32 S10         N/A
 ***** THE ABOVE OBSERVATIONS ARE NON NWS ARE NOT QUALITY
       CONTROLLED AND MAY MIS-REPORT RAIN FOR SNOW...
$$

  *****  WEATHER ACROSS NORTHERN MINNESOTA  *****

CITY           SKY/WX    TMP DP  RH WIND       PRES   REMARKS
FLAG ISLAND    FAIR      68  52  56 E8G16     29.90S
WARROAD        FAIR      66  57  72 NE10      29.89F
ROSEAU         FAIR      70  57  64 E10       29.88S
HALLOCK        FAIR      70  55  60 W8        29.85R
THF RVR FALLS  CLOUDY    70  54  56 S7        29.89R
6HR MIN TEMP:  72; 6HR MAX TEMP:  77;

HALSTAD        NOT AVBL
FOSSTON        PTSUNNY   72  55  56 E6        29.86R
BAUDETTE       FAIR      73  48  41 E12       29.88F
6HR MIN TEMP:  73; 6HR MAX TEMP:  79;

WASKISH        FAIR      73  57  56 CALM      29.89R
CROOKSTON      HVY RAIN  59  57  94 N14       29.85F
$$
  *****  WEATHER ACROSS CENTRAL AND WEST MINNESOTA  *****

CITY           SKY/WX    TMP DP  RH WIND       PRES   REMARKS
BEMIDJI        LGT RAIN  64  57  77 NE6       29.89F
PARK RAPIDS    FAIR      76  54  46 E14       29.87S
6HR MIN TEMP:  70; 6HR MAX TEMP:  82; 6HR PCP:  0.01;

WADENA         FAIR      75  52  43 SE13      29.85S
DETROIT LAKES  FAIR      75  50  41 S6        29.85S
MOORHEAD       TSTM      70  57  64 E13G18    29.78S
FERGUS FALLS   FAIR      79  55  44 E8        29.75F
ELBOW LAKE     FAIR      75  56  50 SE13G18   29.80F
6HR MIN TEMP:  76; 6HR MAX TEMP:  83;

MORRIS MN      FAIR      81  54  39 SE21      29.78F
STAPLES        FAIR      79  50  36 SE12      29.87R
WHEATON        FAIR      84  55  37 SE13G22   29.77F
$$
  *****  WEATHER ELSEWHERE ACROSS MINNESOTA  *****

CITY           SKY/WX    TMP DP  RH WIND       PRES   REMARKS
DULUTH         PTSUNNY   71  49  45 SE5       29.93S
6HR MIN TEMP:  71; 6HR MAX TEMP:  81;

INTRNTL FALLS  FAIR      73  46  38 E6        29.92F
6HR MIN TEMP:  71; 6HR MAX TEMP:  75;

ELY            FAIR      72  41  33 NE5       29.95S
CLOQUET        LGT RAIN  66  54  63 CALM      29.94S
BRAINERD       FAIR      77  51  40 S7        29.88F
6HR MIN TEMP:  76; 6HR MAX TEMP:  81;

HIBBING        FAIR      76  44  32 N6        29.91F
6HR MIN TEMP:  73; 6HR MAX TEMP:  78;

ALEXANDRIA     FAIR      74  55  51 E12       29.85S
6HR MIN TEMP:  71; 6HR MAX TEMP:  81; 6HR PCP:  0.03;

SAINT CLOUD    FAIR      79  52  38 SE12      29.87F
6HR MIN TEMP:  79; 6HR MAX TEMP:  83;

MINNEAPOLIS    PTSUNNY   80  51  36 SE6       29.88F
6HR MIN TEMP:  79; 6HR MAX TEMP:  84;

$$

  *****  WEATHER ACROSS SOUTH DAKOTA  *****

CITY           SKY/WX    TMP DP  RH WIND       PRES   REMARKS
SIOUX FALLS    FAIR      80  56  43 SE12      29.77F
6HR MIN TEMP:  76; 6HR MAX TEMP:  82;

BROOKINGS      FAIR      80  54  40 S14       29.78F
WATERTOWN      FAIR      79  56  45 S13       29.78F
6HR MIN TEMP:  79; 6HR MAX TEMP:  82;

HURON          PTSUNNY   80  60  50 S9        29.74S
6HR MIN TEMP:  75; 6HR MAX TEMP:  81;

SISSETON         N/A     84  52  33 S17       29.74F
ABERDEEN       MOSUNNY   80  58  46 S10       29.74F
6HR MIN TEMP:  80; 6HR MAX TEMP:  86;

MITCHELL       CLOUDY    80  62  54 S7        29.75F
PIERRE         LGT RAIN  63  56  78 NW17      29.76R
6HR MIN TEMP:  70; 6HR MAX TEMP:  84;

MOBRIDGE       LGT RAIN  59  55  87 N10       29.70S
RAPID CITY     MOSUNNY   69  46  43 N26G36    29.87R
6HR MIN TEMP:  61; 6HR MAX TEMP:  80; 6HR PCP: TRACE;

$$

  *****  SOME WEATHER IN NEARBY STATES *****

CITY           SKY/WX    TMP DP  RH WIND       PRES   REMARKS
GLASGOW MT     MOSUNNY   57  42  57 W23G35    29.96R
6HR MIN TEMP:  52; 6HR MAX TEMP:  63; 6HR PCP:  0.09;

GREAT FALLS MT CLOUDY    58  34  40 NW13      30.14R
6HR MIN TEMP:  54; 6HR MAX TEMP:  62;

CHEYENNE WY    CLOUDY    66  48  52 N6        30.01F
6HR MIN TEMP:  54; 6HR MAX TEMP:  66; 6HR PCP:  0.14;

SCOTTSBLUFF NE CLOUDY    71  46  40 SW8       29.92R
6HR MIN TEMP:  66; 6HR MAX TEMP:  80; 6HR PCP: TRACE;

OMAHA NE       PTSUNNY   71  64  78 SE20      29.86F
6HR MIN TEMP:  70; 6HR MAX TEMP:  88; 6HR PCP:  0.05;

DES MOINES IA  PTSUNNY   82  59  45 S9        29.89S
6HR MIN TEMP:  82; 6HR MAX TEMP:  88;

DAVENPORT IA   FAIR      83  58  42 SW8       29.95S
6HR MIN TEMP:  80; 6HR MAX TEMP:  86;

CHICAGO IL     FAIR      81  57  43 NE10      29.95S
6HR MIN TEMP:  81; 6HR MAX TEMP:  87;

EAU CLAIRE WI  FAIR      79  51  37 S5        29.93F
6HR MIN TEMP:  78; 6HR MAX TEMP:  82;

LA CROSSE WI   FAIR      82  47  29 S7        29.92F
6HR MIN TEMP:  80; 6HR MAX TEMP:  85;

$$

  *****  SOME NATIONAL WEATHER *****

CITY           SKY/WX    TMP DP  RH WIND       PRES   REMARKS
LA GUARDIA NY  CLOUDY    74  72  93 S10       29.93R               C1F1C2F2C3F3C4F4C5F5C6F6C7F7C8F8C9F9CaFaCbFbCcFcCdFdCe!


USA.gov is the U.S. government's official web portal to all federal, state and local government web resources and services.